Wind_Speed
26 27 27 27 27 27 28 27 27 26 27 28 29 28 27 26 25 24 24 24 27 27 29 28 28 28 25 24 22 21 21 19 19 18 18 18 17 16 16 15 14 12 11
28 28 28 28 29 29 29 28 27 29 29 29 29 29 28 27 27 26 26 26 26 28 28 30 29 30 29 27 25 25 24 22 21 20 19 19 19 18 18 17 16 15 13
29 28 29 29 29 30 30 30 29 30 30 30 30 30 30 29 29 28 28 28 27 28 28 29 30 30 31 30 28 27 26 25 24 23 22 20 20 19 19 19 18 17 16
29 30 30 31 31 32 32 31 31 31 31 31 31 31 31 30 30 30 30 30 29 29 29 30 31 31 31 32 31 30 29 28 26 25 24 23 21 21 21 20 20 19 18
31 32 33 33 34 34 33 32 33 32 32 32 32 32 31 32 32 31 31 30 30 30 30 31 31 31 31 32 33 32 31 30 28 27 25 24 23 22 21 21 21 21 20
34 35 35 35 35 35 35 34 35 34 34 34 33 32 32 32 32 32 32 32 31 31 31 31 32 32 33 34 34 34 33 32 31 29 27 26 24 23 22 21 21 21 21
36 37 37 37 37 37 37 37 37 36 36 36 35 33 33 33 33 33 33 33 32 32 32 32 32 34 34 36 36 36 35 34 33 31 29 28 26 25 24 22 22 22 22
38 38 38 38 38 38 38 38 38 38 37 37 36 35 34 34 34 33 33 33 33 32 32 33 33 34 35 36 36 37 37 36 35 33 31 30 28 27 26 24 23 23 23
38 38 38 38 39 39 39 39 39 38 38 38 37 36 35 35 35 34 33 33 32 33 33 32 32 34 35 36 37 38 38 38 36 35 34 32 31 29 28 26 24 23 23
37 37 37 37 37 37 37 38 38 38 38 38 38 37 36 36 36 35 34 34 33 32 32 33 33 34 36 37 37 37 37 38 38 37 36 34 32 31 29 27 25 24 23
36 36 36 35 35 35 35 36 36 37 37 37 38 37 37 37 36 36 35 35 34 33 33 33 33 34 35 36 38 37 37 37 37 37 36 35 33 32 30 28 26 24 23
34 35 35 35 35 36 36 36 36 37 37 37 38 38 38 38 37 36 36 36 35 35 35 35 34 35 36 37 37 38 38 37 37 38 37 36 35 33 31 29 27 25 23
35 35 36 36 36 37 37 37 37 37 37 37 37 38 38 38 39 38 37 37 37 37 36 36 36 36 36 37 37 38 39 39 39 39 39 37 35 34 32 30 28 26 24
36 36 37 37 38 37 38 38 38 38 37 37 37 38 38 38 39 39 38 38 38 38 38 37 37 38 38 37 38 39 39 40 40 40 39 38 36 34 32 31 29 27 24
36 37 38 38 39 39 39 38 38 39 39 38 38 38 38 39 39 39 39 39 39 39 38 38 37 38 39 39 38 39 39 40 41 41 40 39 37 36 33 32 30 28 25
38 38 39 39 39 39 39 38 38 39 40 40 40 41 41 41 40 40 40 41 41 41 39 39 39 39 41 41 41 40 40 41 41 42 41 40 39 37 35 33 31 29 26
39 39 39 39 39 38 38 39 39 39 40 41 42 43 43 43 43 43 42 43 44 43 42 41 41 41 41 42 42 41 41 43 43 42 42 41 40 38 36 34 32 30 27
40 40 39 39 39 39 39 39 39 40 40 41 42 43 44 45 45 45 45 44 45 46 44 44 43 43 43 44 43 42 42 43 43 42 42 43 41 40 38 36 34 31 29
40 40 40 39 39 38 39 39 40 40 41 41 42 43 44 45 46 46 47 47 47 48 47 47 46 45 45 45 45 43 44 44 44 44 44 44 43 41 40 38 35 33 30
41 40 40 39 38 39 39 40 40 40 41 41 42 43 44 46 47 47 48 48 49 49 49 49 50 48 48 47 47 45 45 46 45 45 45 45 44 43 41 40 38 35 32
41 40 39 39 39 39 39 40 40 40 40 40 41 42 44 45 47 48 48 49 51 51 51 51 51 51 50 49 49 47 46 47 47 47 46 46 45 44 43 42 40 37 35
41 40 39 39 39 39 39 39 40 39 40 40 41 41 43 44 46 48 49 50 52 52 53 53 53 52 53 51 50 50 49 48 47 48 48 48 47 46 45 43 42 39 37
41 41 40 39 39 39 39 39 39 38 38 38 39 39 40 42 44 46 48 50 52 52 53 55 56 55 55 54 52 52 51 50 49 49 49 49 48 48 47 45 43 41 39
41 40 39 39 38 38 38 38 37 36 35 35 36 36 37 39 41 44 46 49 51 53 53 55 57 57 57 56 56 53 52 53 53 52 51 50 49 48 47 46 45 43 41
41 40 39 39 38 37 36 36 35 33 33 33 33 34 35 36 39 42 45 47 50 52 53 55 58 59 59 58 57 56 54 54 55 53 52 50 49 48 48 48 47 44 43
41 40 39 38 36 35 35 34 33 31 30 30 31 32 33 34 37 40 42 44 47 50 53 54 57 59 59 59 58 57 57 54 54 54 53 51 49 48 47 46 46 45 43
Wind_Direction
280 280 281 282 282 282 285 283 280 279 278 278 276 275 275 271 270 268 262 261 256 251 246 242 238 234 232 230 229 228 225 224 223 222 222 222 222 222 222 221 220 221 222
280 280 284 282 283 283 283 283 282 280 278 276 275 273 271 270 269 269 265 264 259 252 249 242 238 236 234 233 230 228 226 225 224 223 222 223 224 225 225 226 224 225 226
284 286 286 285 286 287 286 283 281 279 277 276 274 273 270 269 269 268 266 264 261 253 248 243 240 237 236 233 230 228 227 228 226 225 225 224 225 227 228 227 227 228 228
291 291 289 288 288 288 286 283 282 281 277 274 272 270 269 267 267 266 264 261 259 253 248 245 242 238 236 234 231 229 228 226 226 225 225 226 227 229 229 228 229 228 228
293 292 289 287 288 287 284 282 280 278 276 273 271 270 267 265 265 263 261 259 257 254 249 246 241 239 235 233 231 229 227 225 226 226 226 226 227 228 229 230 229 230 230
293 291 289 287 286 285 283 280 278 275 274 272 271 268 265 263 263 261 258 255 254 254 250 246 240 237 235 231 229 228 228 227 226 226 226 225 227 227 228 228 228 230 232
292 290 289 287 286 284 282 279 277 274 273 271 269 266 264 262 261 260 256 253 252 251 249 246 241 237 234 230 230 228 227 226 226 226 225 225 227 227 227 227 229 231 233
293 291 290 288 286 284 281 279 276 274 272 270 268 265 263 261 260 258 255 253 250 249 247 244 242 237 233 230 228 228 227 226 226 224 224 225 227 228 228 229 231 233 233
294 292 290 288 286 283 281 279 276 274 271 269 267 265 262 259 258 257 254 251 249 248 245 242 239 235 232 229 226 226 226 224 224 223 223 224 226 228 229 230 231 232 232
294 292 290 288 285 283 280 278 276 273 270 268 266 264 262 259 256 255 253 251 249 245 242 240 237 234 231 228 227 227 226 224 223 222 223 223 224 227 228 228 229 229 230
295 294 292 290 287 283 280 278 276 273 270 268 266 263 261 258 256 254 251 250 248 244 241 238 235 233 230 230 227 227 226 224 223 223 222 222 223 225 225 226 227 226 227
297 295 293 291 288 285 282 278 275 273 270 267 264 262 259 257 255 252 249 247 245 243 240 237 234 233 232 230 227 226 224 222 222 222 221 221 222 223 223 224 223 223 223
300 298 295 293 290 287 283 279 275 272 269 266 263 261 258 256 254 251 248 245 242 241 239 236 234 232 231 227 226 226 224 222 221 221 220 219 221 221 221 221 221 221 222
302 299 297 294 291 288 284 280 275 272 268 265 262 260 257 255 252 250 247 244 241 239 236 234 232 230 229 227 226 224 223 222 220 219 218 218 219 218 217 219 219 220 221
304 301 298 296 292 289 285 281 276 272 268 265 262 259 257 254 252 249 246 243 240 236 234 233 232 229 227 226 225 224 223 221 219 218 217 217 216 216 216 217 218 218 220
306 303 300 297 293 290 287 283 278 273 269 266 263 259 256 253 251 248 245 242 240 236 233 232 230 228 225 224 223 222 222 220 218 216 215 215 215 216 216 216 217 217 218
308 305 302 299 295 291 288 284 279 275 271 268 265 261 257 253 249 247 244 241 239 236 232 230 229 227 223 222 222 220 220 218 215 214 214 214 214 215 214 214 215 215 216
310 307 304 300 296 292 289 285 281 277 274 270 266 262 258 253 249 246 243 240 237 235 232 228 228 226 224 221 220 218 217 215 213 213 214 213 213 214 214 214 214 215 215
311 309 305 302 298 294 290 287 283 279 275 271 266 262 258 254 249 246 242 239 237 234 231 227 225 225 224 222 219 217 215 214 214 214 214 214 213 213 214 214 214 214 215
312 310 307 303 300 296 292 288 285 282 277 272 267 263 258 254 249 246 242 239 236 233 230 227 224 223 223 221 219 217 216 215 215 215 215 214 214 214 215 215 215 215 216
314 311 308 304 302 299 295 291 287 283 279 274 269 263 258 253 249 245 242 239 235 232 229 226 224 223 222 222 220 218 217 215 215 215 215 215 215 215 215 216 216 217 218
315 312 309 307 303 300 296 292 289 285 280 276 270 265 259 254 249 245 242 239 235 232 228 225 222 222 221 222 220 219 218 216 216 215 216 216 217 216 216 217 217 218 219
317 314 311 309 306 303 299 296 292 288 283 278 272 266 261 255 249 244 241 238 234 231 228 224 222 220 220 220 219 218 218 218 217 217 216 217 217 217 218 218 218 219 220
318 316 314 311 309 306 302 300 296 291 285 279 273 266 261 255 249 244 240 236 233 230 227 224 221 220 220 219 219 217 218 218 217 217 217 217 216 218 218 219 220 221 222
321 318 315 313 311 308 306 304 300 295 287 280 273 267 261 256 250 244 239 234 230 228 226 224 221 220 220 219 219 219 217 217 216 217 217 216 216 217 218 220 220 221 223
322 320 317 315 314 312 310 307 303 298 290 282 276 269 262 256 249 243 237 233 228 225 224 223 222 220 220 219 219 219 217 215 215 215 215 216 216 216 218 219 220 221 223
Height
5862 5861 5861 5860 5859 5858 5858 5857 5857 5857 5856 5856 5857 5857 5858 5859 5860 5861 5862 5864 5865 5867 5869 5872 5874 5877 5880 5883 5886 5889 5891 5893 5895 5897 5900 5902 5904 5907 5908 5910 5912 5913 5915
5855 5854 5854 5853 5852 5851 5851 5851 5851 5850 5849 5850 5850 5851 5851 5852 5853 5854 5855 5857 5858 5860 5862 5864 5867 5871 5874 5877 5880 5883 5886 5889 5891 5893 5896 5898 5901 5903 5905 5907 5909 5911 5913
5848 5848 5847 5846 5845 5844 5844 5843 5843 5843 5843 5843 5843 5843 5844 5845 5845 5846 5848 5849 5851 5853 5855 5857 5860 5863 5867 5870 5874 5877 5881 5884 5887 5889 5892 5894 5897 5899 5902 5904 5906 5908 5910
5842 5841 5840 5839 5838 5837 5836 5836 5835 5836 5835 5835 5835 5836 5836 5837 5838 5839 5840 5842 5843 5845 5848 5850 5853 5856 5859 5863 5867 5871 5875 5878 5881 5884 5887 5890 5892 5895 5897 5900 5902 5905 5907
5835 5834 5833 5831 5830 5829 5828 5828 5828 5827 5827 5827 5828 5828 5828 5829 5830 5831 5833 5834 5836 5838 5840 5843 5846 5849 5852 5855 5860 5864 5868 5872 5875 5879 5882 5885 5888 5891 5893 5896 5898 5901 5903
5827 5826 5824 5823 5822 5821 5820 5819 5819 5819 5819 5819 5819 5820 5820 5821 5822 5823 5824 5826 5828 5830 5832 5835 5838 5841 5845 5848 5852 5856 5861 5865 5869 5873 5877 5880 5883 5886 5889 5891 5894 5896 5899
5819 5817 5816 5814 5813 5812 5810 5809 5809 5809 5809 5809 5810 5811 5812 5813 5814 5814 5816 5817 5820 5822 5824 5827 5830 5833 5837 5841 5845 5849 5853 5857 5862 5867 5871 5874 5878 5881 5884 5887 5890 5892 5895
5809 5807 5806 5804 5802 5801 5800 5799 5798 5798 5798 5799 5800 5801 5802 5804 5805 5806 5807 5809 5811 5813 5816 5819 5822 5825 5828 5833 5837 5841 5846 5851 5855 5859 5864 5868 5873 5876 5879 5882 5885 5888 5890
5800 5798 5796 5794 5792 5790 5789 5788 5788 5788 5788 5788 5789 5790 5792 5794 5795 5797 5798 5800 5802 5805 5807 5810 5813 5816 5820 5825 5829 5834 5839 5843 5848 5853 5858 5862 5867 5871 5874 5877 5880 5883 5885
5790 5788 5786 5784 5782 5780 5779 5778 5777 5777 5777 5777 5778 5779 5781 5783 5785 5788 5790 5791 5793 5796 5799 5802 5805 5809 5812 5817 5821 5826 5830 5836 5841 5846 5851 5856 5860 5865 5869 5872 5875 5878 5881
5781 5778 5776 5774 5772 5770 5769 5768 5767 5766 5766 5767 5767 5768 5770 5772 5774 5777 5780 5782 5785 5787 5790 5794 5797 5801 5804 5809 5813 5818 5823 5828 5834 5839 5844 5849 5854 5859 5863 5866 5870 5873 5876
5772 5769 5766 5764 5762 5760 5759 5757 5756 5756 5755 5756 5756 5758 5759 5762 5764 5766 5770 5772 5775 5779 5782 5785 5789 5793 5797 5801 5805 5811 5816 5821 5827 5832 5837 5843 5848 5853 5857 5861 5864 5868 5871
5762 5759 5756 5753 5751 5749 5747 5746 5745 5745 5744 5745 5746 5747 5748 5751 5753 5756 5759 5762 5765 5769 5773 5776 5780 5785 5789 5793 5798 5803 5808 5814 5819 5825 5831 5836 5842 5847 5851 5856 5859 5863 5866
5753 5749 5746 5742 5740 5738 5736 5735 5734 5733 5733 5734 5734 5736 5737 5739 5742 5745 5748 5752 5755 5759 5763 5767 5771 5776 5780 5785 5790 5795 5800 5806 5811 5817 5823 5829 5835 5840 5845 5850 5854 5858 5862
5743 5739 5735 5731 5728 5726 5724 5722 5722 5721 5721 5722 5723 5724 5726 5728 5730 5733 5737 5741 5745 5749 5754 5758 5762 5766 5771 5776 5781 5787 5793 5798 5804 5810 5816 5823 5828 5834 5839 5844 5849 5853 5857
5732 5728 5724 5720 5716 5714 5711 5710 5709 5708 5709 5709 5710 5712 5714 5716 5718 5722 5725 5729 5733 5739 5744 5748 5752 5757 5762 5767 5773 5779 5784 5790 5796 5803 5809 5816 5822 5828 5833 5838 5843 5848 5852
5721 5717 5712 5708 5705 5701 5699 5697 5696 5695 5695 5695 5696 5697 5700 5702 5705 5709 5713 5717 5722 5727 5733 5738 5742 5747 5752 5758 5764 5770 5776 5782 5788 5795 5802 5808 5815 5821 5827 5832 5837 5842 5846
5710 5705 5700 5696 5692 5689 5686 5684 5682 5681 5681 5681 5681 5682 5685 5687 5691 5695 5699 5704 5709 5715 5722 5727 5732 5737 5742 5748 5755 5761 5767 5773 5780 5787 5794 5800 5807 5814 5820 5826 5831 5836 5841
5699 5694 5689 5684 5680 5677 5674 5671 5669 5667 5666 5666 5666 5667 5669 5672 5676 5680 5685 5690 5696 5702 5709 5716 5721 5727 5733 5739 5745 5752 5758 5765 5771 5778 5785 5792 5799 5807 5813 5819 5825 5830 5835
5689 5683 5677 5672 5668 5664 5660 5657 5655 5653 5651 5651 5651 5652 5653 5656 5660 5664 5670 5676 5682 5688 5696 5703 5710 5716 5722 5728 5735 5742 5749 5756 5763 5770 5777 5784 5792 5799 5806 5812 5818 5824 5829
5678 5672 5666 5661 5656 5652 5647 5644 5641 5638 5636 5635 5635 5635 5637 5639 5643 5648 5654 5660 5667 5674 5681 5689 5697 5704 5711 5718 5725 5732 5739 5746 5754 5761 5769 5777 5784 5791 5798 5805 5811 5817 5823
5667 5661 5655 5649 5644 5639 5634 5630 5627 5624 5621 5620 5619 5619 5620 5623 5627 5631 5637 5644 5651 5659 5667 5676 5684 5692 5699 5707 5714 5722 5730 5737 5745 5753 5760 5768 5776 5783 5790 5797 5804 5810 5816
5657 5650 5644 5638 5632 5626 5621 5617 5612 5609 5606 5604 5603 5603 5604 5607 5610 5615 5621 5627 5635 5643 5652 5662 5671 5679 5686 5695 5703 5712 5720 5728 5736 5743 5751 5758 5767 5774 5782 5789 5796 5802 5809
5646 5639 5633 5626 5620 5614 5609 5604 5599 5595 5592 5590 5588 5588 5589 5591 5595 5599 5605 5612 5619 5628 5638 5648 5658 5666 5673 5681 5691 5700 5708 5717 5725 5733 5741 5749 5757 5765 5773 5781 5788 5795 5801
5636 5629 5622 5616 5609 5603 5597 5591 5586 5582 5579 5576 5574 5574 5575 5577 5580 5584 5590 5597 5605 5613 5622 5632 5641 5650 5659 5669 5679 5688 5697 5706 5714 5723 5731 5740 5748 5756 5764 5772 5779 5786 5793
5627 5619 5612 5605 5599 5592 5586 5581 5575 5571 5567 5564 5562 5561 5562 5563 5566 5569 5576 5583 5591 5600 5608 5618 5627 5637 5647 5656 5667 5676 5686 5694 5703 5713 5722 5731 5739 5747 5756 5763 5770 5778 5785